Sioux City, IA

2:28 AM CST on December 13, 2019 (GMT -0600)
Sioux Gateway

Weather History for KSUX - October, 2019

Change the Weather History Date:

Monday, October 28, 2019

  Actual Average Record
Temperature  
Mean Temperature 28 °F 46 °F  
Max Temperature 37 °F 58 °F 84 °F (1937)
Min Temperature 20 °F 34 °F 6 °F (1925)
Degree Days  
Heating Degree Days 36 19  
Month to date heating degree days 501 392  
Since 1 July heating degree days 537 539  
Cooling Degree Days 0 0  
Month to date cooling degree days 0 8  
Year to date cooling degree days 910 869  
Moisture  
Dew Point 18 °F    
Average Humidity 62    
Maximum Humidity 88    
Minimum Humidity 40    
Precipitation  
Precipitation 0.00 in 0.05 in 0.85 in (1940)
Month to date precipitation 2.42 1.99  
Year to date precipitation 30.53 25.49  
Snow  
Snow 0.00 in 0.10 in 2.40 in (1913)
Month to date snowfall T 0.8  
Since 1 July snowfall T 0.8  
Since 1 September snowfall T 0.8  
Snow Depth 0.00 in    
Sea Level Pressure  
Sea Level Pressure 30.20 in    
Wind  
Wind Speed 7 mph ()    
Max Wind Speed 18 mph    
Max Gust Speed 24 mph    
Visibility 10.0 miles    
Events      
T = Trace of Precipitation, MM = Missing Value Source: Averaged Metar Reports

Daily Weather History Graph

Daily Weather History Graph

Search for Another Location

Airport or City:

Astronomy

Oct. 28, 2019 Rise Set
Actual Time 7:53 AM CDT 6:24 PM CDT
Civil Twilight 7:24 AM CDT 6:53 PM CDT
Nautical Twilight 6:51 AM CDT 7:26 PM CDT
Astronomical Twilight 6:19 AM CDT 7:58 PM CDT
Moon 8:16 AM CDT (10/28) 7:10 PM CDT (10/28)
Length of Visible Light 11h 28m
Length of Day
10h 30m
New Moon, 0% of the Moon is Illuminated
Oct 28
New Moon
Nov 4
First Quarter
Nov 12
Full
Nov 19
Last Quarter
Nov 26
New

Hourly Weather History & Observations

Time (CDT) Temp. Windchill Dew Point Humidity Pressure Visibility Wind Dir Wind Speed Gust Speed Precip Events Conditions
12:52 AM 30.9 °F 20.2 °F 19.9 °F 64% 30.23 in 10.0 mi NW 15.0 mph - N/A   Overcast
1:52 AM 28.9 °F 19.8 °F 19.0 °F 67% 30.24 in 10.0 mi NW 10.4 mph - N/A   Mostly Cloudy
2:52 AM 27.0 °F 17.3 °F 19.0 °F 72% 30.24 in 10.0 mi NW 10.4 mph - N/A   Clear
3:52 AM 27.0 °F 18.7 °F 19.0 °F 72% 30.22 in 10.0 mi NW 8.1 mph - N/A   Clear
4:52 AM 24.1 °F - 18.0 °F 77% 30.23 in 10.0 mi Calm Calm - N/A   Clear
5:52 AM 21.0 °F 16.2 °F 18.0 °F 88% 30.23 in 10.0 mi SSW 3.5 mph - N/A   Clear
6:52 AM 21.0 °F 16.2 °F 18.0 °F 88% 30.25 in 10.0 mi WSW 3.5 mph - N/A   Clear
7:52 AM 21.0 °F 14.6 °F 17.1 °F 85% 30.24 in 10.0 mi WSW 4.6 mph - N/A   Partly Cloudy
8:52 AM 25.0 °F 18.1 °F 18.0 °F 75% 30.24 in 10.0 mi WNW 5.8 mph - N/A   Overcast
9:52 AM 28.0 °F 20.8 °F 18.0 °F 66% 30.23 in 10.0 mi WNW 6.9 mph - N/A   Partly Cloudy
10:52 AM 32.0 °F 27.5 °F 19.0 °F 59% 30.22 in 10.0 mi WNW 4.6 mph - N/A   Clear
11:52 AM 35.1 °F 27.9 °F 15.1 °F 44% 30.22 in 10.0 mi West 9.2 mph - N/A   Clear
12:52 PM 36.0 °F 29.0 °F 16.0 °F 44% 30.19 in 10.0 mi West 9.2 mph 18.4 mph N/A   Clear
1:52 PM 36.0 °F 27.1 °F 15.1 °F 43% 30.15 in 10.0 mi WNW 13.8 mph 24.2 mph N/A   Mostly Cloudy
2:52 PM 35.1 °F 26.9 °F 14.0 °F 42% 30.14 in 10.0 mi NW 11.5 mph - N/A   Overcast
3:52 PM 35.1 °F 30.1 °F 14.0 °F 42% 30.14 in 10.0 mi NNW 5.8 mph - N/A   Overcast
4:52 PM 35.1 °F - 14.0 °F 42% 30.14 in 10.0 mi Calm Calm - N/A   Overcast
5:52 PM 34.0 °F 29.8 °F 16.0 °F 48% 30.16 in 10.0 mi West 4.6 mph - N/A   Overcast
6:52 PM 33.1 °F 27.7 °F 18.0 °F 54% 30.17 in 10.0 mi WSW 5.8 mph - N/A   Overcast
7:52 PM 33.1 °F 30.0 °F 17.1 °F 52% 30.17 in 10.0 mi WNW 3.5 mph - N/A   Overcast
8:52 PM 32.0 °F 27.5 °F 19.9 °F 61% 30.18 in 10.0 mi West 4.6 mph - N/A   Overcast
9:52 PM 32.0 °F 25.6 °F 19.9 °F 61% 30.19 in 10.0 mi WSW 6.9 mph - N/A   Overcast
10:52 PM 30.0 °F 24.1 °F 21.9 °F 72% 30.21 in 10.0 mi SSW 5.8 mph - N/A   Overcast
11:52 PM 27.0 °F 23.0 °F 21.9 °F 81% 30.21 in 10.0 mi South 3.5 mph - N/A   Mostly Cloudy